Date String (YYYY-MM-DD hh:mm:ss) UTC,Instrument flags,absolute air pressure of the measurement (hPa),sample flow rate (lpm),inlet stack bypass flow (lpm),air temperature of the measurement (°C),ambient temperature measured by the external sensor (°C),aerosol sample conditioner tube jacket temperature (°C),OPC LED temperature (°C),internal box temperature (°C),relative humidity of the measurement (%),span deviation,mass concentration of particles derived from Lorenz-Mie calculation of OPC scattering (μg/m³),mass concentration of particles derived from Lorenz-Mie calculation of OPC scattering (μg/m³),mass concentration of particles derived from Lorenz-Mie calculation of OPC scattering (μg/m³)
DateTimeUTC,F1_M11,P_M11,Q1_M11,Q2_M11,T1_M11,T2_M11,T3_M11,T4_M11,T5_M11,U1_M11,ZSPAN_M11,X0_M11,X2_M11,X1_M11
2023-10-01 11:00:00,SystemResetWarning,0826.6,4.99,000.00,028.8,027.4,000.0,037.2,030.4,17.1,0000.0,0011.71,0003.75,0003.19
2023-10-01 11:01:00,SystemResetWarning,0826.6,5.01,000.00,028.8,027.4,000.0,037.2,030.5,17.1,0000.0,0011.26,0003.75,0003.19
2023-10-01 11:02:00,SystemResetWarning,0826.6,5.01,000.00,028.8,027.4,000.0,037.2,030.4,17.1,0000.0,0010.54,0003.74,0003.19
2023-10-01 11:03:00,SystemResetWarning,0826.6,5.00,000.00,028.8,027.1,000.0,037.2,030.5,17.1,0000.0,0009.84,0003.70,0003.19
2023-10-01 11:04:00,SystemResetWarning,0826.6,4.98,000.00,028.8,025.2,000.0,037.2,030.3,17.2,0000.0,0008.81,0003.72,0003.20
2023-10-01 11:05:00,SystemResetWarning,0826.6,5.01,000.00,028.7,024.4,000.0,037.1,030.2,17.2,0000.0,0008.41,0003.75,0003.20
2023-10-01 11:06:00,SystemResetWarning,0826.5,5.01,000.00,028.6,024.4,000.0,037.1,029.9,17.4,0000.0,0008.47,0003.79,0003.20
2023-10-01 11:07:00,SystemResetWarning,0826.5,4.99,000.00,028.4,024.8,000.0,037.1,029.8,17.5,0000.0,0008.29,0003.77,0003.19
2023-10-01 11:08:00,SystemResetWarning,0826.5,5.00,000.00,028.4,025.1,000.0,037.1,029.8,17.6,0000.0,0008.02,0003.75,0003.18
2023-10-01 11:09:00,SystemResetWarning,0826.5,5.00,000.00,028.4,025.5,000.0,037.0,029.8,17.7,0000.0,0007.86,0003.68,0003.16
2023-10-01 11:10:00,SystemResetWarning,0826.4,5.01,000.00,028.3,025.8,000.0,037.0,029.9,17.8,0000.0,0007.72,0003.67,0003.15
2023-10-01 11:11:00,SystemResetWarning,0826.5,5.00,000.00,028.3,026.0,000.0,037.0,029.9,17.8,0000.0,0007.32,0003.66,0003.13
2023-10-01 11:12:00,SystemResetWarning,0826.4,4.99,000.00,028.3,026.2,000.0,036.9,029.9,17.8,0000.0,0007.66,0003.63,0003.12
2023-10-01 11:13:00,SystemResetWarning,0826.5,5.00,000.00,028.3,026.4,000.0,036.9,030.0,17.8,0000.0,0007.65,0003.61,0003.10
2023-10-01 11:14:00,SystemResetWarning,0826.6,5.00,000.00,028.3,026.6,000.0,036.9,030.0,17.9,0000.0,0007.62,0003.59,0003.09
2023-10-01 11:15:00,SystemResetWarning,0826.6,5.00,000.00,028.3,026.7,000.0,036.9,030.0,17.9,0000.0,0007.61,0003.57,0003.07
2023-10-01 11:16:00,SystemResetWarning,0826.6,5.00,000.00,028.4,026.8,000.0,036.9,030.1,18.0,0000.0,0007.59,0003.53,0003.05
2023-10-01 11:17:00,SystemResetWarning,0826.6,5.00,000.00,028.4,026.9,000.0,036.9,030.1,18.1,0000.0,0007.50,0003.48,0003.03
2023-10-01 11:18:00,SystemResetWarning,0826.6,5.00,000.00,028.4,026.9,000.0,036.9,030.1,18.1,0000.0,0007.73,0003.51,0003.02
2023-10-01 11:19:00,SystemResetWarning,0826.7,5.00,000.00,028.4,027.0,000.0,036.9,030.1,18.1,0000.0,0008.34,0003.49,0003.01
2023-10-01 11:20:00,SystemResetWarning,0826.7,4.99,000.00,028.4,027.0,000.0,036.9,030.1,18.0,0000.0,0008.35,0003.47,0003.00
2023-10-01 11:21:00,SystemResetWarning,0826.7,5.00,000.00,028.4,027.1,000.0,036.9,030.1,18.0,0000.0,0008.63,0003.47,0002.98
2023-10-01 11:22:00,SystemResetWarning,0826.8,5.00,000.00,028.4,027.1,000.0,036.9,030.2,18.0,0000.0,0009.11,0003.43,0002.98
2023-10-01 11:23:00,SystemResetWarning,0826.8,4.99,000.00,028.5,027.1,000.0,036.9,030.2,18.0,0000.0,0008.63,0003.48,0002.97
2023-10-01 11:24:00,SystemResetWarning,0826.8,5.02,000.00,028.5,027.1,000.0,036.9,030.2,18.1,0000.0,0008.51,0003.48,0002.95
2023-10-01 11:25:00,SystemResetWarning,0826.8,5.01,000.00,028.5,027.2,000.0,036.9,030.2,18.1,0000.0,0008.56,0003.50,0002.93
2023-10-01 11:26:00,SystemResetWarning,0826.8,5.00,000.00,028.5,027.2,000.0,036.9,030.2,18.0,0000.0,0008.95,0003.50,0002.91
2023-10-01 11:27:00,SystemResetWarning,0826.8,4.99,000.00,028.5,027.2,000.0,036.9,030.2,17.9,0000.0,0009.10,0003.50,0002.89
2023-10-01 11:28:00,SystemResetWarning,0826.8,5.00,000.00,028.5,027.2,000.0,036.9,030.2,18.0,0000.0,0009.19,0003.50,0002.86
2023-10-01 11:29:00,SystemResetWarning,0826.8,4.99,000.00,028.5,027.2,000.0,036.9,030.3,17.9,0000.0,0009.29,0003.45,0002.81
2023-10-01 11:30:00,SystemResetWarning,0826.8,5.01,000.00,028.5,027.2,000.0,036.9,030.2,17.9,0000.0,0008.64,0003.39,0002.75
2023-10-01 11:31:00,SystemResetWarning,0826.7,5.01,000.00,028.5,027.2,000.0,036.9,030.3,17.8,0000.0,0008.22,0003.36,0002.68
2023-10-01 11:32:00,SystemResetWarning,0826.6,5.00,000.00,028.6,027.2,000.0,036.9,030.3,17.7,0000.0,0008.01,0003.30,0002.61
2023-10-01 11:33:00,SystemResetWarning,0826.7,5.00,000.00,028.6,027.3,000.0,036.9,030.3,17.7,0000.0,0007.50,0003.24,0002.52
2023-10-01 11:34:00,SystemResetWarning,0826.7,4.99,000.00,028.6,027.3,000.0,036.9,030.3,17.7,0000.0,0007.15,0003.18,0002.44
2023-10-01 11:35:00,SystemResetWarning,0826.7,5.00,000.00,028.6,027.3,000.0,037.0,030.3,17.6,0000.0,0007.47,0003.13,0002.37
2023-10-01 11:36:00,SystemResetWarning,0826.7,4.99,000.00,028.6,027.3,000.0,037.0,030.3,17.6,0000.0,0007.98,0003.02,0002.30
2023-10-01 11:37:00,SystemResetWarning,0826.7,5.00,000.00,028.6,027.3,000.0,037.0,030.3,17.5,0000.0,0007.67,0002.96,0002.23
2023-10-01 11:38:00,SystemResetWarning,0826.7,5.00,000.00,028.6,027.3,000.0,037.0,030.3,17.5,0000.0,0007.43,0002.93,0002.14
2023-10-01 11:39:00,SystemResetWarning,0826.7,5.01,000.00,028.6,027.3,000.0,037.0,030.3,17.5,0000.0,0007.48,0002.89,0002.08
2023-10-01 11:40:00,SystemResetWarning,0826.6,5.00,000.00,028.6,027.3,000.0,037.0,030.3,17.5,0000.0,0007.08,0002.81,0002.02
2023-10-01 11:41:00,SystemResetWarning,0826.6,5.00,000.00,028.6,027.3,000.0,037.0,030.3,17.6,0000.0,0006.90,0002.74,0001.98
2023-10-01 11:42:00,SystemResetWarning,0826.6,5.00,000.00,028.6,027.3,000.0,037.0,030.3,17.6,0000.0,0006.88,0002.71,0001.96
2023-10-01 11:43:00,SystemResetWarning,0826.6,5.00,000.00,028.6,027.3,000.0,037.0,030.3,17.6,0000.0,0006.88,0002.72,0001.93
2023-10-01 11:44:00,SystemResetWarning,0826.7,5.00,000.00,028.7,027.3,000.0,037.0,030.3,17.7,0000.0,0006.67,0002.77,0001.94
2023-10-01 11:45:00,SystemResetWarning,0826.6,5.00,000.00,028.7,027.3,000.0,037.0,030.3,17.7,0000.0,0006.59,0002.79,0001.94
2023-10-01 11:46:00,SystemResetWarning,0826.6,4.99,000.00,028.7,027.3,000.0,037.0,030.4,17.7,0000.0,0006.00,0002.79,0001.93
2023-10-01 11:47:00,SystemResetWarning,0826.6,4.99,000.00,028.7,027.3,000.0,037.1,030.4,17.7,0000.0,0005.11,0002.86,0001.93
2023-10-01 11:48:00,SystemResetWarning,0826.6,5.00,000.00,028.7,027.4,000.0,037.1,030.4,17.7,0000.0,0005.04,0002.83,0001.93
2023-10-01 11:49:00,SystemResetWarning,0826.6,5.01,000.00,028.7,027.4,000.0,037.1,030.4,17.8,0000.0,0004.83,0002.78,0001.92
2023-10-01 11:50:00,SystemResetWarning,0826.6,5.00,000.00,028.7,027.4,000.0,037.1,030.4,17.8,0000.0,0004.89,0002.74,0001.91
2023-10-01 11:51:00,SystemResetWarning,0826.6,4.99,000.00,028.7,027.4,000.0,037.1,030.4,17.8,0000.0,0005.14,0002.81,0001.91
2023-10-01 11:52:00,SystemResetWarning,0826.6,5.00,000.00,028.7,027.4,000.0,037.1,030.4,17.8,0000.0,0006.56,0002.89,0001.90
2023-10-01 11:53:00,SystemResetWarning,0826.6,4.99,000.00,028.7,027.4,000.0,037.1,030.4,17.7,0000.0,0007.18,0002.94,0001.92
2023-10-01 11:54:00,SystemResetWarning,0826.6,5.00,000.00,028.8,027.4,000.0,037.1,030.4,17.8,0000.0,0007.32,0002.94,0001.94
2023-10-01 11:55:00,SystemResetWarning,0826.6,4.99,000.00,028.8,027.4,000.0,037.2,030.5,17.8,0000.0,0007.56,0002.93,0001.93
2023-10-01 11:56:00,SystemResetWarning,0826.6,5.01,000.00,028.8,027.4,000.0,037.2,030.5,17.8,0000.0,0007.69,0002.94,0001.93
2023-10-01 11:57:00,SystemResetWarning,0826.6,5.00,000.00,028.8,027.5,000.0,037.2,030.5,17.8,0000.0,0007.60,0002.88,0001.93
2023-10-01 11:58:00,SystemResetWarning,0826.6,5.01,000.00,028.8,027.5,000.0,037.2,030.5,17.7,0000.0,0007.42,0002.79,0001.92
2023-10-01 11:59:00,SystemResetWarning,0826.6,5.00,000.00,028.8,027.5,000.0,037.2,030.5,17.7,0000.0,0007.40,0002.79,0001.92
